Total_Precipitation_Accumulation
0.98 0.98 0.99 1.02 0.64 0.46 0.32 0.22 0.16 0.12 0.09 0.09 0.16 0.14 0.09 0.09 0.07 0.06 0.02 0.05 0.27 0.42 1.06 1.15 0.49 0.31 0.31 0.44 0.50 0.58 0.64 0.50 0.31 0.30 0.30 0.27 0.28 0.24 0.30 0.36 0.41 0.43 0.44
1.61 1.50 1.18 1.11 1.46 1.60 1.23 0.88 0.53 0.28 0.15 0.11 0.08 0.10 0.11 0.11 0.11 0.09 0.09 0.10 0.20 0.31 0.57 1.12 0.62 0.36 0.38 0.42 0.56 0.81 0.86 0.55 0.37 0.37 0.38 0.39 0.42 0.40 0.38 0.41 0.43 0.45 0.49
1.28 1.69 1.77 1.34 1.21 1.75 2.16 2.05 1.60 1.19 0.73 0.45 0.23 0.11 0.09 0.11 0.12 0.11 0.11 0.14 0.21 0.29 0.41 0.91 1.01 0.55 0.49 0.40 0.57 0.74 0.84 0.71 0.59 0.58 0.57 0.56 0.55 0.52 0.52 0.53 0.53 0.48 0.47
1.16 1.56 1.56 1.67 1.91 1.81 2.29 2.14 1.49 1.25 1.03 0.96 0.82 0.62 0.44 0.28 0.17 0.16 0.17 0.17 0.21 0.23 0.29 0.59 0.73 0.99 0.63 0.41 0.51 0.59 0.80 0.91 0.95 1.02 1.09 1.07 1.01 0.97 0.92 0.93 0.94 0.94 1.00
1.02 1.13 1.60 2.46 2.72 2.48 1.85 1.86 2.23 1.93 1.23 0.72 0.66 0.73 0.73 0.59 0.37 0.27 0.19 0.21 0.28 0.36 0.41 0.62 0.68 0.68 0.69 0.49 0.52 0.47 0.67 0.92 0.90 0.99 1.11 1.28 1.10 0.95 0.92 1.03 1.23 1.40 1.60
1.33 1.43 1.18 1.43 2.42 2.91 2.91 2.51 1.85 1.96 1.96 1.80 1.36 0.83 0.61 0.46 0.40 0.40 0.34 0.29 0.31 0.39 0.45 0.70 0.70 0.81 1.00 0.87 0.98 0.88 0.72 0.81 1.03 1.18 1.24 1.31 1.29 1.35 1.30 1.34 1.44 1.46 1.36
1.64 1.70 1.68 1.62 1.89 1.85 1.85 2.28 3.00 2.74 2.18 2.08 2.48 1.78 1.19 0.78 0.43 0.29 0.38 0.44 0.38 0.44 0.65 0.93 1.08 0.93 0.94 1.04 1.11 1.19 1.15 1.10 1.33 1.56 1.73 1.87 1.97 1.92 1.82 1.76 1.70 1.54 1.39
1.65 1.89 1.68 1.58 1.68 1.86 1.69 1.38 1.49 2.13 2.41 2.76 2.50 2.11 1.61 1.15 0.93 0.47 0.22 0.21 0.27 0.37 0.40 0.49 0.61 0.76 0.82 0.75 0.82 1.09 1.02 0.89 0.85 1.05 1.38 1.66 1.58 1.44 1.38 1.39 1.38 1.54 1.76
1.77 1.85 2.03 2.05 2.01 1.90 1.87 1.72 1.54 1.69 1.63 1.94 2.48 2.71 2.00 1.19 0.68 0.64 0.53 0.31 0.22 0.26 0.31 0.51 0.65 0.67 0.58 0.38 0.35 0.39 0.52 0.66 0.76 0.97 1.21 1.49 1.67 1.43 1.33 1.34 1.60 2.06 2.51
1.63 1.89 2.00 2.10 2.27 2.40 2.01 1.97 2.04 2.24 2.21 1.57 1.51 1.65 1.97 1.60 1.04 0.55 0.36 0.43 0.36 0.46 0.58 0.65 0.69 0.58 0.43 0.36 0.35 0.32 0.37 0.36 0.46 0.77 1.02 1.41 1.86 2.06 2.34 2.63 2.83 3.20 3.34
2.22 2.32 2.39 2.50 2.36 2.41 2.66 2.36 2.18 2.18 2.74 2.61 2.19 1.66 1.46 1.61 1.68 1.53 0.81 0.57 0.70 0.74 0.83 0.80 0.60 0.46 0.67 0.90 1.14 1.07 0.81 0.75 0.85 1.20 1.56 1.73 2.17 2.69 3.07 3.37 4.20 3.95 3.98
1.95 2.29 2.45 2.37 2.37 2.06 1.93 2.05 2.08 1.90 1.77 2.03 2.26 2.35 2.01 1.63 1.38 1.74 1.50 0.88 0.72 0.67 0.67 0.87 1.29 1.27 1.27 1.37 1.59 1.70 2.26 1.95 2.40 2.56 2.44 3.08 3.02 3.36 3.21 3.09 2.98 2.23 2.36
1.26 1.30 1.65 1.77 1.59 1.61 1.60 1.65 1.46 1.36 1.49 1.48 1.60 1.92 2.15 2.27 2.28 2.02 2.02 1.61 1.20 0.87 0.77 0.60 0.61 0.64 0.59 0.72 1.27 1.34 1.97 2.34 2.48 2.94 2.89 2.85 2.94 2.48 2.12 1.96 2.03 2.28 2.06
1.59 1.39 1.22 1.53 1.65 1.42 1.25 1.23 1.11 0.88 0.91 1.02 1.09 1.23 1.57 1.94 2.42 2.66 2.63 2.90 2.63 1.84 1.28 0.81 0.80 0.95 0.96 1.14 1.28 1.59 1.38 1.36 1.21 1.32 1.75 1.90 1.88 1.50 1.19 1.02 1.26 1.55 1.58
1.32 1.25 1.10 1.02 1.01 1.00 1.16 1.20 1.12 0.97 0.88 0.85 0.96 1.17 1.34 1.26 1.78 2.13 2.45 2.72 3.40 3.06 1.86 1.18 1.00 0.88 0.84 0.86 1.07 1.00 0.94 1.23 1.17 1.10 1.10 1.22 1.42 1.44 1.12 1.13 1.08 1.20 1.38
1.43 1.36 1.11 0.94 0.78 0.67 0.79 0.90 0.91 0.92 0.99 0.91 0.87 0.96 1.11 1.36 1.49 1.61 1.99 2.28 2.49 2.89 2.54 1.33 1.15 1.09 1.09 1.14 1.27 1.13 1.11 1.42 1.31 1.19 1.05 0.90 0.89 0.77 0.56 0.54 0.60 0.55 0.49
1.36 1.16 1.18 1.19 0.97 0.81 0.82 0.93 0.91 0.94 1.09 0.97 0.94 0.96 0.94 1.07 1.51 1.65 1.55 1.86 2.27 2.33 2.34 1.67 1.39 1.28 1.26 1.22 1.18 1.00 0.89 0.75 0.74 0.85 0.68 0.49 0.34 0.31 0.28 0.26 0.27 0.31 0.36
1.57 1.17 0.99 0.96 1.01 1.00 0.98 1.05 1.25 1.19 1.04 1.11 1.08 1.15 1.04 1.03 1.14 1.44 1.84 1.78 1.86 2.18 2.51 2.28 1.92 1.67 1.36 1.00 0.71 0.50 0.35 0.25 0.28 0.33 0.25 0.17 0.18 0.16 0.15 0.16 0.20 0.22 0.24
1.52 1.37 1.14 1.05 0.90 0.82 0.90 0.97 1.01 1.03 1.13 1.10 1.07 0.99 0.98 1.13 1.34 1.49 1.86 2.33 2.16 1.79 1.69 1.62 1.33 1.02 0.78 0.49 0.35 0.26 0.19 0.15 0.12 0.22 0.19 0.17 0.17 0.14 0.12 0.14 0.17 0.19 0.22
1.63 1.43 1.30 1.22 1.15 0.81 0.71 0.67 0.64 0.72 0.80 0.91 0.88 0.91 0.85 0.94 0.90 0.97 1.07 1.10 1.45 1.57 1.19 1.02 0.94 0.88 0.74 0.52 0.42 0.33 0.29 0.25 0.22 0.19 0.20 0.18 0.20 0.19 0.17 0.15 0.12 0.10 0.08
1.80 1.80 1.55 1.23 1.21 1.22 1.04 0.83 0.62 0.67 0.76 0.91 1.01 0.97 0.96 0.96 0.94 0.77 0.78 0.79 0.90 1.30 1.78 1.71 1.23 0.89 0.78 0.69 0.62 0.40 0.32 0.24 0.23 0.19 0.17 0.17 0.19 0.18 0.16 0.18 0.16 0.14 0.14
1.56 1.83 1.90 1.63 1.23 1.27 1.74 1.30 0.95 0.81 0.80 0.75 0.76 0.74 0.73 0.86 0.69 0.72 0.63 0.57 0.70 0.94 1.32 1.77 1.66 0.97 0.61 0.50 0.49 0.56 0.60 0.51 0.41 0.17 0.21 0.17 0.14 0.14 0.10 0.10 0.15 0.17 0.19
1.77 1.99 2.16 2.06 2.10 1.85 2.05 1.95 1.58 1.06 0.89 0.78 0.65 0.63 0.59 0.51 0.55 0.42 0.56 0.60 0.67 0.83 0.83 0.83 0.99 0.80 0.64 0.57 0.75 0.78 0.66 0.59 0.35 0.15 0.25 0.28 0.17 0.20 0.18 0.21 0.32 0.32 0.33
2.05 2.04 2.03 2.15 2.31 2.06 1.96 1.82 1.73 1.29 0.90 0.62 0.58 0.42 0.35 0.34 0.36 0.47 0.51 0.81 0.69 0.51 0.47 0.57 0.59 0.53 0.68 0.68 0.89 1.07 0.92 0.78 0.59 0.31 0.27 0.49 0.16 0.14 0.16 0.15 0.30 0.37 0.39
1.74 1.77 1.64 1.67 1.68 1.66 1.54 1.47 1.42 1.36 1.25 0.68 0.32 0.37 0.34 0.31 0.43 0.62 0.70 0.82 0.71 0.51 0.41 0.54 0.70 0.74 0.87 1.06 1.19 1.40 1.46 1.35 1.16 0.60 0.36 0.54 0.34 0.28 0.25 0.23 0.31 0.58 0.55
1.51 1.34 1.33 1.33 1.49 1.36 1.53 1.24 1.20 1.24 1.29 1.34 0.71 0.37 0.55 0.35 0.42 0.66 0.69 0.64 0.62 0.51 0.49 0.51 0.59 0.69 0.77 0.76 1.01 1.06 1.23 1.75 1.39 1.19 0.57 1.03 0.75 0.66 1.04 0.36 0.24 0.27 0.39